All Stations Radar Satellite Rainfall Station Map Enhanced Site
Observations: Wind Gusts Humidity Temperature    
Forecasts: Wind Gusts Humidity Temperature    

Mt. Soledad (578) Station Data (Station Map)

Red Flag Warning: No
Fire Weather Zone: 243
SDGE Region: Beach Cities
Lat/Lon: 32.814/-117.241

Observations

Time (PDT)Wind Spd/GustTempRHFuel Moisture
7/22 10:30pmNNW 2 G 568°86%12.31%
7/22 10:20pmNW 1 G 568°85%12.21%
7/22 10:10pmNW 2 G 568°85%12.16%
7/22 10:00pmNNW 2 G 468°85%12.05%
7/22 9:50pmN 2 G 568°85%11.95%
7/22 9:40pmN 2 G 468°84%11.83%
7/22 9:30pmN 2 G 468°83%11.72%
7/22 9:20pmN 2 G 368°82%11.65%
7/22 9:10pmN 1 G 368°82%11.53%
7/22 9:00pmNNW 1 G 268°83%11.49%
7/22 8:50pmN 2 G 368°84%11.39%
7/22 8:40pmN 3 G 468°83%11.31%
7/22 8:30pmN 4 G 768°83%11.22%
7/22 8:20pmN 3 G 669°83%11.11%
7/22 8:10pmNNW 3 G 769°83%11.02%
7/22 8:00pmNNW 4 G 769°83%10.93%
7/22 7:50pmNNW 5 G 1069°83%10.85%
7/22 7:40pmNNW 5 G 870°83%10.73%
7/22 7:30pmNNW 5 G 870°81%10.63%
7/22 7:20pmNNW 5 G 1071°80%10.51%
7/22 7:10pmNNW 5 G 971°78%10.43%
7/22 7:00pmNNW 6 G 1271°78%10.46%
7/22 6:50pmNW 6 G 1171°76%10.44%
7/22 6:40pmNW 7 G 1471°76%10.4%
7/22 6:30pmNW 6 G 1072°75%10.39%
7/22 6:20pmNNW 5 G 1272°76%10.43%
7/22 6:10pmNW 6 G 1072°78%10.43%
7/22 6:00pmNW 6 G 1271°80%10.43%
7/22 5:50pmNW 7 G 1471°79%10.38%
7/22 5:40pmNW 8 G 1471°79%10.41%
7/22 5:30pmNW 7 G 1272°78%10.39%
7/22 5:20pmWNW 7 G 1272°76%10.35%
7/22 5:10pmNW 6 G 1173°75%10.42%
7/22 5:00pmNW 8 G 1272°77%10.41%
7/22 4:50pmNW 8 G 1273°76%10.43%
7/22 4:40pmNW 6 G 1272°78%10.45%
7/22 4:30pmWNW 7 G 1272°79%10.42%
7/22 4:20pmNW 8 G 1472°79%10.39%
7/22 4:10pmWNW 8 G 1472°76%10.37%
7/22 4:00pmWNW 6 G 1373°74%10.44%
7/22 3:50pmNW 8 G 1572°77%10.46%
7/22 3:40pmNW 7 G 1472°77%10.45%
7/22 3:30pmWNW 7 G 1372°77%10.44%
7/22 3:20pmWNW 7 G 1672°77%10.48%
7/22 3:10pmWNW 7 G 1473°75%10.5%
7/22 3:00pmNW 9 G 1472°75%10.45%
7/22 2:50pmNW 8 G 1472°76%10.52%
7/22 2:40pmWNW 8 G 1472°76%10.53%
7/22 2:30pmWNW 7 G 1373°75%10.58%
7/22 2:20pmNW 7 G 1373°74%10.6%
7/22 2:10pmNW 8 G 1672°75%10.63%
7/22 2:00pmNW 8 G 1472°75%10.65%
7/22 1:50pmWNW 8 G 1371°76%10.68%
7/22 1:40pmWNW 7 G 1372°75%10.66%
7/22 1:30pmNW 7 G 1472°76%10.7%
7/22 1:20pmNW 8 G 1572°76%10.67%
7/22 1:10pmNW 8 G 1571°76%10.7%
7/22 1:00pmWNW 8 G 1371°76%10.56%
7/22 12:50pmNW 9 G 1471°75%10.63%
7/22 12:40pmNW 9 G 1571°76%10.68%
7/22 12:30pmNW 9 G 1570°76%10.65%
7/22 12:20pmWNW 9 G 1671°76%10.69%
7/22 12:10pmNW 8 G 1470°77%10.81%
7/22 12:00pmWNW 8 G 1370°78%10.81%
7/22 11:50amNW 7 G 1571°76%10.89%
7/22 11:40amNW 7 G 1270°77%10.96%
7/22 11:30amWNW 7 G 1270°77%11.05%
7/22 11:20amNW 6 G 1271°76%11.14%
7/22 11:10amNW 7 G 1271°76%11.22%
7/22 11:00amWNW 6 G 1070°78%11.34%
7/22 10:50amNW 7 G 1170°79%11.4%
7/22 10:40amNW 6 G 1170°79%11.53%
7/22 10:30amNW 6 G 1270°78%11.59%
7/22 10:20amNNW 7 G 1170°79%11.77%
7/22 10:10amWNW 6 G 1169°79%11.9%
7/22 10:00amNW 5 G 1070°79%12.08%
7/22 9:50amNW 6 G 1168°82%12.27%
7/22 9:40amNW 7 G 1368°81%12.32%
7/22 9:30amWNW 5 G 968°83%12.57%
7/22 9:20amNW 7 G 1168°83%12.67%
7/22 9:10amNW 6 G 1068°83%12.75%
7/22 9:00amNW 5 G 968°83%12.86%
7/22 8:50amNW 4 G 867°84%13.04%
7/22 8:40amNW 4 G 767°84%13.11%
7/22 8:30amNW 4 G 867°85%13.18%
7/22 8:20amNW 4 G 767°85%13.24%
7/22 8:10amNW 4 G 867°86%13.3%
7/22 8:00amNW 4 G 867°87%13.34%
7/22 7:50amNW 3 G 666°87%13.41%
7/22 7:40amNW 3 G 766°88%13.42%
7/22 7:30amNNW 3 G 866°88%13.48%
7/22 7:20amNNW 4 G 666°89%13.49%
7/22 7:10amNNW 3 G 566°89%13.51%
7/22 7:00amNNW 5 G 1166°89%13.51%
7/22 6:50amNW 4 G 966°89%13.53%
7/22 6:40amNNW 4 G 866°89%13.54%
7/22 6:30amNNW 4 G 866°89%13.54%
7/22 6:20amNNW 4 G 766°90%13.53%
7/22 6:10amNNW 4 G 766°90%13.52%
7/22 6:00amNNW 5 G 966°90%13.49%
7/22 5:50amNNW 4 G 766°90%13.48%
7/22 5:40amNNW 3 G 666°90%13.45%
7/22 5:30amNNW 5 G 866°89%13.42%
7/22 5:20amNNW 5 G 966°89%13.39%
7/22 5:10amNNW 3 G 666°90%13.39%
7/22 5:00amNNW 4 G 866°91%13.4%
7/22 4:50amNNW 6 G 1066°91%13.36%
7/22 4:40amNNW 6 G 1066°91%13.33%
7/22 4:30amNNW 4 G 967°91%13.3%
7/22 4:20amNNW 4 G 867°91%13.25%
7/22 4:10amNNW 4 G 867°90%13.21%
7/22 4:00amNNW 4 G 867°90%13.16%
7/22 3:50amNNW 5 G 767°89%13.11%
7/22 3:40amNNW 5 G 867°88%13.06%
7/22 3:30amNNW 4 G 767°87%13.04%
7/22 3:20amNNW 2 G 767°87%13.02%
7/22 3:10amNNW 4 G 867°88%13%
7/22 3:00amNNW 4 G 1067°88%12.98%
7/22 2:50amNNW 3 G 967°88%12.96%
7/22 2:40amNNW 3 G 667°88%12.93%
7/22 2:30amNNW 3 G 767°87%12.91%
7/22 2:20amNW 3 G 667°87%12.89%
7/22 2:10amNW 3 G 667°87%12.87%
7/22 2:00amNW 3 G 567°87%12.86%
7/22 1:50amNNW 3 G 867°87%12.83%
7/22 1:40amNNW 3 G 667°87%12.81%
7/22 1:30amNW 4 G 767°87%12.79%
7/22 1:20amNW 3 G 667°87%12.77%
7/22 1:10amNW 3 G 767°87%12.75%
7/22 1:00amNNW 5 G 967°87%12.73%
7/22 12:50amNNW 3 G 767°87%12.72%
7/22 12:40amNW 3 G 667°87%12.69%
7/22 12:30amNW 3 G 967°87%12.67%
7/22 12:20amNNW 3 G 667°87%12.63%
7/22 12:10amNNW 4 G 967°87%12.6%
7/22 12:00amNNW 4 G 667°87%12.57%
7/21 11:50pmNNW 5 G 967°88%12.52%
7/21 11:40pmNW 3 G 767°88%12.48%
7/21 11:30pmNW 3 G 967°88%12.42%
7/21 11:20pmNW 3 G 667°88%12.36%
7/21 11:10pmNW 3 G 667°88%12.28%
7/21 11:00pmNW 3 G 567°87%12.19%
7/21 10:50pmNNW 3 G 667°86%12.1%
7/21 10:40pmNNW 3 G 767°86%12.02%
7/21 10:30pmNW 4 G 868°85%11.98%
7/21 10:20pmNW 4 G 868°86%11.95%
7/21 10:10pmNW 4 G 968°86%11.93%
7/21 10:00pmNW 4 G 868°87%11.89%
7/21 9:50pmNW 5 G 967°87%11.83%
7/21 9:40pmNNW 3 G 567°87%11.75%
7/21 9:30pmNNW 3 G 767°86%11.62%
7/21 9:20pmNNW 4 G 868°86%11.52%
7/21 9:10pmNNW 5 G 868°85%11.44%
7/21 9:00pmNNW 5 G 1068°84%11.34%
7/21 8:50pmNW 5 G 1068°84%11.28%
7/21 8:40pmNW 5 G 968°84%11.26%
7/21 8:30pmNW 4 G 868°85%11.2%
7/21 8:20pmNW 5 G 868°85%11.13%
7/21 8:10pmNW 5 G 968°85%11.06%
7/21 8:00pmNW 5 G 968°85%10.98%
7/21 7:50pmNNW 6 G 1068°85%10.87%
7/21 7:40pmNNW 5 G 968°83%10.74%
7/21 7:30pmNNW 4 G 869°83%10.65%
7/21 7:20pmNW 5 G 969°83%10.57%
7/21 7:10pmNW 6 G 1269°83%10.48%
7/21 7:00pmNW 7 G 1269°82%10.36%
7/21 6:50pmNNW 7 G 1569°81%10.28%
7/21 6:40pmNW 6 G 1270°79%10.25%
7/21 6:30pmNW 6 G 1170°78%10.25%
7/21 6:20pmNW 7 G 1270°79%10.19%
7/21 6:00pmWNW 7 G 1271°76%10.18%
7/21 6:00pmWNW 7 G 1271°76%10.18%